TimeMST,TemperatureF,Dew PointF,Humidity,Sea Level PressureIn,VisibilityMPH,Wind Direction,Wind SpeedMPH,Gust SpeedMPH,PrecipitationIn,Events,Conditions,WindDirDegrees,DateUTC
12:51 AM,1.4,-2.2,85,30.62,9.0,NNE,6.9,-,N/A,,Partly Cloudy,20,2013-01-17 07:51:00
12:53 AM,1.9,-2.0,83,30.88,9.0,NNE,5.8,-,N/A,,Partly Cloudy,20,2013-01-17 07:53:00
2:06 AM,-0.4,-5.8,78,30.61,9.0,North,8.1,-,N/A,,Mostly Cloudy,10,2013-01-17 09:06:00
2:26 AM,-2.2,-7.6,78,30.62,9.0,North,8.1,-,N/A,,Scattered Clouds,10,2013-01-17 09:26:00
2:53 AM,-0.9,-5.1,83,30.88,9.0,North,6.9,-,N/A,,Clear,350,2013-01-17 09:53:00
3:53 AM,-2.0,-8.0,76,30.87,10.0,North,3.5,-,N/A,,Clear,350,2013-01-17 10:53:00
4:53 AM,-2.0,-8.0,76,30.86,10.0,Calm,Calm,-,N/A,,Clear,0,2013-01-17 11:53:00
5:24 AM,-2.2,-7.6,78,30.59,9.0,North,3.5,-,N/A,,Partly Cloudy,360,2013-01-17 12:24:00
5:53 AM,-4.0,-9.0,79,30.87,10.0,NNE,5.8,-,N/A,,Clear,20,2013-01-17 12:53:00
6:53 AM,-6.0,-11.0,79,30.88,10.0,NNW,3.5,-,N/A,,Clear,340,2013-01-17 13:53:00
7:53 AM,-5.1,-11.0,76,30.88,10.0,Calm,Calm,-,N/A,,Clear,0,2013-01-17 14:53:00
8:53 AM,-6.0,-9.0,87,30.92,10.0,North,3.5,-,N/A,,Clear,350,2013-01-17 15:53:00
9:53 AM,1.0,-4.0,79,30.91,10.0,North,4.6,-,N/A,,Clear,350,2013-01-17 16:53:00
10:53 AM,3.9,-0.9,80,30.92,10.0,North,4.6,-,N/A,,Clear,350,2013-01-17 17:53:00
11:53 AM,9.0,3.0,77,30.87,10.0,NNE,8.1,-,N/A,,Clear,20,2013-01-17 18:53:00
12:53 PM,10.9,5.0,77,30.83,10.0,North,6.9,-,N/A,,Clear,360,2013-01-17 19:53:00
1:53 PM,10.9,5.0,77,30.82,10.0,NNW,4.6,-,N/A,,Clear,330,2013-01-17 20:53:00
2:53 PM,12.0,3.9,70,30.79,10.0,Calm,Calm,-,N/A,,Clear,0,2013-01-17 21:53:00
3:53 PM,10.0,3.9,76,30.80,10.0,Calm,Calm,-,N/A,,Clear,0,2013-01-17 22:53:00
4:53 PM,10.0,3.9,76,30.80,9.0,NNW,3.5,-,N/A,,Clear,340,2013-01-17 23:53:00
5:53 PM,3.9,1.0,88,30.83,10.0,North,3.5,-,N/A,,Clear,10,2013-01-18 00:53:00
6:53 PM,1.9,-0.9,88,30.84,10.0,North,5.8,-,N/A,,Clear,360,2013-01-18 01:53:00
7:53 PM,1.0,-2.9,83,30.83,10.0,NNE,4.6,-,N/A,,Clear,20,2013-01-18 02:53:00
8:53 PM,-0.0,-4.0,83,30.84,6.0,North,5.8,-,N/A,,Clear,10,2013-01-18 03:53:00
9:53 PM,-2.9,-8.0,79,30.82,7.0,North,3.5,-,N/A,,Clear,360,2013-01-18 04:53:00
10:39 PM,-0.4,-5.8,78,30.50,9.0,NNE,5.8,-,N/A,,Partly Cloudy,30,2013-01-18 05:39:00
10:53 PM,-0.9,-6.0,79,30.79,8.0,NNE,5.8,-,N/A,,Mostly Cloudy,30,2013-01-18 05:53:00
11:53 PM,-0.9,-6.0,79,30.77,9.0,Calm,Calm,-,N/A,,Scattered Clouds,0,2013-01-18 06:53:00